This is the latest recevied weather packets stored in our database for station/object HB9CJD-1. If no packets are shown the sender has not sent any weather packets the latest 1 day(s).
| Time | Temp. | Humidity | Pressure | Rain* | Wind** | Luminosity | Snow |
|---|---|---|---|---|---|---|---|
| 1778089861 | 11.11° C | 78% | 1012.9 hPa | - | - | - | - |
| 1778089861 | 11.11° C | 78% | 1012.9 hPa | - | - | - | - |
| 1778089258 | 11.11° C | 78% | 1012.7 hPa | - | - | - | - |
| 1778089258 | 11.11° C | 78% | 1012.7 hPa | - | - | - | - |
| 1778086845 | 10.56° C | 80% | 1012.4 hPa | - | - | - | - |
| 1778086845 | 10.56° C | 80% | 1012.4 hPa | - | - | - | - |
| 1778084432 | 11.11° C | 84% | 1012.4 hPa | - | - | - | - |
| 1778084432 | 11.11° C | 84% | 1012.4 hPa | - | - | - | - |
| 1778082622 | 11.11° C | 86% | 1012.5 hPa | - | - | - | - |
| 1778082622 | 11.11° C | 86% | 1012.5 hPa | - | - | - | - |
| 1778082019 | 10.56° C | 84% | 1012.4 hPa | - | - | - | - |
| 1778082019 | 10.56° C | 84% | 1012.4 hPa | - | - | - | - |
| 1778081416 | 10.56° C | 87% | 1012.4 hPa | - | - | - | - |
| 1778079606 | 10.56° C | 84% | 1012.5 hPa | - | - | - | - |
| 1778077796 | 10.56° C | 86% | 1012.4 hPa | - | - | - | - |
| 1778077193 | 10.56° C | 90% | 1012.4 hPa | - | - | - | - |
| 1778077193 | 10.56° C | 90% | 1012.4 hPa | - | - | - | - |
| 1778075383 | 10° C | 93% | 1012.2 hPa | - | - | - | - |
| 1778074780 | 10° C | 90% | 1012.4 hPa | - | - | - | - |
| 1778074780 | 10° C | 90% | 1012.4 hPa | - | - | - | - |
| 1778074177 | 10° C | 90% | 1012.4 hPa | - | - | - | - |
| 1778072367 | 10° C | 91% | 1012.1 hPa | - | - | - | - |
| 1778072367 | 10° C | 91% | 1012.1 hPa | - | - | - | - |
| 1778071764 | 10.56° C | 91% | 1011.9 hPa | - | - | - | - |
| 1778071160 | 10.56° C | 89% | 1011.6 hPa | - | - | - | - |
* Rain since midnight (hover to see other rain measurements)
** Current wind speed in m/s (hover to see current wind gust speed)